• In Uzbekistan
  • List of Countries
  • For 7 days
  • Water Temperature
  • Satellite Maps
  • Weather Map
  • Weather Widgets
  • user-avatar
    Login

    Hourly Weather Pontypridd

    Today, 18 October, Wednesday

    Time Temperature Precipitation Wind Pressure Humidity
    00:00 +9°C° 0.1 mm 2 mps 750 mmHg 93%
    01:00 +9°C° 0 mm 3 mps 750 mmHg 93%
    02:00 +9°C° 0 mm 3 mps 749 mmHg 93%
    03:00 +8°C° 0 mm 4 mps 749 mmHg 94%
    04:00 +8°C° 0 mm 4 mps 748 mmHg 94%
    05:00 +10°C° 0 mm 4 mps 748 mmHg 94%
    06:00 +10°C° 0 mm 4 mps 748 mmHg 94%
    07:00 +10°C° 0.1 mm 4 mps 747 mmHg 93%
    08:00 +11°C° 0.1 mm 4 mps 747 mmHg 92%
    09:00 +10°C° 0.1 mm 5 mps 747 mmHg 92%
    10:00 +11°C° 0.3 mm 4 mps 747 mmHg 92%
    11:00 +12°C° 0.3 mm 4 mps 747 mmHg 92%
    12:00 +12°C° 0.3 mm 3 mps 747 mmHg 93%
    13:00 +12°C° 0.1 mm 3 mps 747 mmHg 92%
    14:00 +14°C° 0.1 mm 2 mps 746 mmHg 92%
    15:00 +14°C° 0.1 mm 2 mps 746 mmHg 92%
    16:00 +14°C° 0 mm 2 mps 746 mmHg 93%
    17:00 +13°C° 0 mm 2 mps 746 mmHg 94%
    18:00 +13°C° 0 mm 2 mps 746 mmHg 96%
    19:00 +13°C° 0 mm 2 mps 746 mmHg 96%
    20:00 +13°C° 0 mm 2 mps 746 mmHg 96%
    21:00 +12°C° 0 mm 2 mps 746 mmHg 96%
    22:00 +12°C° 0 mm 2 mps 746 mmHg 96%
    23:00 +12°C° 0 mm 2 mps 745 mmHg 96%

    Tomorrow, 19 October, Thursday

    Time Temperature Precipitation Wind Pressure Humidity
    00:00 +12°C° 0 mm 2 mps 745 mmHg 97%
    01:00 +12°C° 0 mm 2 mps 745 mmHg 96%
    02:00 +12°C° 0 mm 2 mps 744 mmHg 96%
    03:00 +11°C° 0 mm 3 mps 744 mmHg 96%
    04:00 +12°C° 0 mm 2 mps 744 mmHg 96%
    05:00 +12°C° 0 mm 2 mps 743 mmHg 96%
    06:00 +12°C° 0 mm 2 mps 743 mmHg 96%
    07:00 +11°C° 0 mm 3 mps 743 mmHg 95%
    08:00 +12°C° 0 mm 3 mps 742 mmHg 93%
    09:00 +13°C° 0 mm 4 mps 742 mmHg 92%
    10:00 +14°C° 0.1 mm 4 mps 742 mmHg 90%
    11:00 +14°C° 0.1 mm 4 mps 741 mmHg 89%
    12:00 +15°C° 0.1 mm 5 mps 741 mmHg 87%
    13:00 +15°C° 0.1 mm 5 mps 740 mmHg 87%
    14:00 +15°C° 0.1 mm 5 mps 740 mmHg 86%
    15:00 +14°C° 0.1 mm 5 mps 739 mmHg 86%
    16:00 +14°C° 0.6 mm 6 mps 739 mmHg 88%
    17:00 +14°C° 0.6 mm 6 mps 739 mmHg 90%
    18:00 +12°C° 0.6 mm 7 mps 738 mmHg 92%
    19:00 +12°C° 1.9 mm 7 mps 738 mmHg 93%
    20:00 +12°C° 1.9 mm 7 mps 738 mmHg 93%
    21:00 +14°C° 1.9 mm 7 mps 738 mmHg 94%
    22:00 +13°C° 0.8 mm 6 mps 737 mmHg 94%
    23:00 +13°C° 0.8 mm 5 mps 737 mmHg 94%

    Day after tomorrow, 20 October, Friday

    Time Temperature Precipitation Wind Pressure Humidity
    00:00 +13°C° 0.8 mm 5 mps 737 mmHg 95%
    01:00 +12°C° 0 mm 5 mps 737 mmHg 94%
    02:00 +12°C° 0 mm 5 mps 738 mmHg 93%
    03:00 +10°C° 0 mm 5 mps 738 mmHg 93%
    04:00 +10°C° 0 mm 5 mps 739 mmHg 92%
    05:00 +10°C° 0 mm 6 mps 740 mmHg 91%
    06:00 +10°C° 0 mm 6 mps 740 mmHg 90%
    07:00 +10°C° 0 mm 6 mps 741 mmHg 89%
    08:00 +10°C° 0 mm 6 mps 742 mmHg 88%
    09:00 +10°C° 0 mm 6 mps 743 mmHg 86%
    10:00 +12°C° 0 mm 5 mps 743 mmHg 83%
    11:00 +12°C° 0 mm 5 mps 743 mmHg 81%
    12:00 +13°C° 0 mm 5 mps 744 mmHg 78%
    13:00 +13°C° 0 mm 5 mps 744 mmHg 77%
    14:00 +12°C° 0 mm 5 mps 744 mmHg 76%
    15:00 +11°C° 0 mm 6 mps 743 mmHg 75%
    16:00 +11°C° 0.7 mm 6 mps 743 mmHg 79%
    17:00 +10°C° 0.7 mm 6 mps 742 mmHg 84%
    18:00 +10°C° 0.7 mm 7 mps 741 mmHg 88%
    19:00 +10°C° 1.6 mm 8 mps 741 mmHg 89%
    20:00 +11°C° 1.6 mm 8 mps 740 mmHg 91%
    21:00 +11°C° 1.6 mm 9 mps 739 mmHg 92%
    22:00 +11°C° 0.9 mm 9 mps 738 mmHg 91%
    23:00 +11°C° 0.9 mm 9 mps 738 mmHg 90%

    21 October, Saturday

    Time Temperature Precipitation Wind Pressure Humidity
    00:00 +12°C° 0.9 mm 9 mps 737 mmHg 89%
    01:00 +11°C° 0.1 mm 9 mps 737 mmHg 87%
    02:00 +11°C° 0.1 mm 10 mps 736 mmHg 86%
    03:00 +9°C° 0.1 mm 10 mps 736 mmHg 84%
    04:00 +9°C° 0.1 mm 11 mps 735 mmHg 82%
    05:00 +9°C° 0.1 mm 12 mps 734 mmHg 81%
    06:00 +9°C° 0.1 mm 13 mps 732 mmHg 79%
    07:00 +9°C° 0.9 mm 14 mps 732 mmHg 80%
    08:00 +10°C° 0.9 mm 15 mps 731 mmHg 80%
    09:00 +10°C° 0.9 mm 16 mps 730 mmHg 81%
    10:00 +10°C° 1 mm 15 mps 730 mmHg 82%
    11:00 +10°C° 1 mm 15 mps 731 mmHg 83%
    12:00 +10°C° 1 mm 15 mps 731 mmHg 84%
    13:00 +10°C° 0.7 mm 14 mps 732 mmHg 84%
    14:00 +10°C° 0.7 mm 14 mps 733 mmHg 83%
    15:00 +10°C° 0.7 mm 13 mps 734 mmHg 83%
    16:00 +10°C° 0.3 mm 13 mps 735 mmHg 83%
    17:00 +10°C° 0.3 mm 12 mps 737 mmHg 83%
    18:00 +9°C° 0.3 mm 12 mps 739 mmHg 82%
    19:00 +9°C° 0.1 mm 12 mps 740 mmHg 82%
    20:00 +8°C° 0.1 mm 11 mps 741 mmHg 81%
    21:00 +8°C° 0.1 mm 11 mps 742 mmHg 81%
    22:00 +8°C° 0.1 mm 11 mps 743 mmHg 80%
    23:00 +8°C° 0.1 mm 11 mps 744 mmHg 80%

    22 October, Sunday

    Time Temperature Precipitation Wind Pressure Humidity
    00:00 +7°C° 0.1 mm 10 mps 745 mmHg 79%
    01:00 +7°C° 0 mm 10 mps 746 mmHg 79%
    02:00 +6°C° 0 mm 9 mps 747 mmHg 78%
    03:00 +6°C° 0 mm 9 mps 748 mmHg 77%
    04:00 +6°C° 0 mm 8 mps 748 mmHg 77%
    05:00 +5°C° 0 mm 8 mps 749 mmHg 77%
    06:00 +5°C° 0 mm 7 mps 750 mmHg 78%
    07:00 +6°C° 0 mm 7 mps 750 mmHg 76%
    08:00 +6°C° 0 mm 7 mps 751 mmHg 75%
    09:00 +8°C° 0 mm 7 mps 752 mmHg 74%
    10:00 +9°C° 0.1 mm 7 mps 752 mmHg 71%
    11:00 +9°C° 0.1 mm 8 mps 752 mmHg 69%
    12:00 +10°C° 0.1 mm 8 mps 753 mmHg 67%
    13:00 +10°C° 0 mm 8 mps 753 mmHg 68%
    14:00 +10°C° 0 mm 7 mps 753 mmHg 69%
    15:00 +10°C° 0 mm 7 mps 753 mmHg 71%
    16:00 +10°C° 0 mm 7 mps 753 mmHg 75%
    17:00 +9°C° 0 mm 6 mps 753 mmHg 79%
    18:00 +8°C° 0 mm 5 mps 753 mmHg 83%
    19:00 +9°C° 0 mm 5 mps 753 mmHg 85%
    20:00 +9°C° 0 mm 6 mps 753 mmHg 86%
    21:00 +9°C° 0 mm 6 mps 753 mmHg 88%
    22:00 +9°C° 0 mm 6 mps 753 mmHg 87%
    23:00 +10°C° 0 mm 7 mps 753 mmHg 87%

    23 October, Monday

    Time Temperature Precipitation Wind Pressure Humidity
    00:00 +10°C° 0 mm 8 mps 752 mmHg 87%
    01:00 +11°C° 0.1 mm 8 mps 752 mmHg 87%
    02:00 +11°C° 0.1 mm 8 mps 751 mmHg 87%
    03:00 +12°C° 0.1 mm 9 mps 751 mmHg 87%
    04:00 +12°C° 0.2 mm 9 mps 751 mmHg 87%
    05:00 +12°C° 0.2 mm 9 mps 750 mmHg 88%
    06:00 +12°C° 0.2 mm 9 mps 750 mmHg 88%
    07:00 +12°C° 0.7 mm 10 mps 750 mmHg 89%
    08:00 +13°C° 0.7 mm 10 mps 750 mmHg 89%
    09:00 +13°C° 0.7 mm 10 mps 750 mmHg 89%
    10:00 +13°C° 0.8 mm 10 mps 750 mmHg 89%
    11:00 +13°C° 0.8 mm 10 mps 750 mmHg 90%
    12:00 +13°C° 0.8 mm 10 mps 750 mmHg 90%
    13:00 +13°C° 0.6 mm 10 mps 750 mmHg 90%
    14:00 +13°C° 0.6 mm 9 mps 750 mmHg 90%
    15:00 +13°C° 0.6 mm 9 mps 750 mmHg 91%
    16:00 +13°C° 0.5 mm 9 mps 750 mmHg 91%
    17:00 +13°C° 0.5 mm 8 mps 750 mmHg 91%
    18:00 +13°C° 0.5 mm 8 mps 750 mmHg 92%
    19:00 +13°C° 0.6 mm 8 mps 750 mmHg 92%
    20:00 +13°C° 0.6 mm 8 mps 750 mmHg 91%
    21:00 +12°C° 0.6 mm 8 mps 750 mmHg 91%
    22:00 +12°C° 0.3 mm 8 mps 750 mmHg 91%
    23:00 +12°C° 0.3 mm 8 mps 749 mmHg 91%
    Show more